When you browse on this site, cookies collect data to enhance your experience and personalize the content and advertising you see.
Visit our Privacy Policy to learn more. By continuing to use the site, you agree to this use of cookies and data.
  • In Schweiz
  • Länderverzeichnis
  • Für 7 Tage
  • Wassertemperatur
  • Wetterkarte
  • Widgets
  • user-avatar
    Anmelden

    Stündliche Wetter Kriens

    Heute, 11 Dezember, Mittwoch

    Zeit Temperatur Niederschläge Wind Luftdruck Luftfeuchtigkeit
    00:00 0°C° 0 mm 1 m/S 713 mmHg 55%
    01:00 +1°C° 0 mm 1 m/S 713 mmHg 52%
    02:00 +2°C° 0 mm 1 m/S 712 mmHg 51%
    03:00 +2°C° 0 mm 1 m/S 711 mmHg 50%
    04:00 +2°C° 0 mm 1 m/S 710 mmHg 50%
    05:00 +2°C° 0 mm 1 m/S 710 mmHg 50%
    06:00 +3°C° 0 mm 1 m/S 709 mmHg 49%
    07:00 +3°C° 0 mm 1 m/S 709 mmHg 49%
    08:00 +4°C° 0 mm 1 m/S 709 mmHg 51%
    09:00 +5°C° 0 mm 1 m/S 708 mmHg 54%
    10:00 +5°C° 0 mm 0 m/S 708 mmHg 56%
    11:00 +5°C° 0 mm 0 m/S 707 mmHg 59%
    12:00 +6°C° 0 mm 0 m/S 706 mmHg 62%
    13:00 +7°C° 0 mm 0 m/S 706 mmHg 66%
    14:00 +6°C° 0 mm 0 m/S 705 mmHg 67%
    15:00 +5°C° 0 mm 0 m/S 705 mmHg 69%
    16:00 +5°C° 0 mm 1 m/S 704 mmHg 70%
    17:00 +5°C° 0.5 mm 1 m/S 704 mmHg 77%
    18:00 +4°C° 0.5 mm 1 m/S 705 mmHg 83%
    19:00 +3°C° 0.5 mm 2 m/S 705 mmHg 90%
    20:00 +4°C° 0.9 mm 1 m/S 705 mmHg 92%
    21:00 +3°C° 0.9 mm 1 m/S 705 mmHg 95%
    22:00 +3°C° 0.9 mm 1 m/S 705 mmHg 97%
    23:00 +3°C° 0.4 mm 1 m/S 704 mmHg 97%

    Morgen, 12 Dezember, Donnerstag

    Zeit Temperatur Niederschläge Wind Luftdruck Luftfeuchtigkeit
    00:00 +3°C° 0.4 mm 1 m/S 704 mmHg 96%
    01:00 +3°C° 0.4 mm 1 m/S 704 mmHg 95%
    02:00 +3°C° 0.1 mm 1 m/S 703 mmHg 94%
    03:00 +2°C° 0.1 mm 1 m/S 703 mmHg 93%
    04:00 +2°C° 0.1 mm 1 m/S 702 mmHg 92%
    05:00 +2°C° 0.7 mm 1 m/S 702 mmHg 94%
    06:00 +2°C° 0.7 mm 1 m/S 703 mmHg 95%
    07:00 +2°C° 0.7 mm 1 m/S 703 mmHg 97%
    08:00 +2°C° 0.7 mm 1 m/S 703 mmHg 96%
    09:00 +2°C° 0.7 mm 1 m/S 703 mmHg 95%
    10:00 +3°C° 0.7 mm 1 m/S 703 mmHg 94%
    11:00 +3°C° 0.2 mm 1 m/S 703 mmHg 91%
    12:00 +3°C° 0.2 mm 1 m/S 703 mmHg 87%
    13:00 +3°C° 0.2 mm 2 m/S 703 mmHg 84%
    14:00 +3°C° 0 mm 1 m/S 702 mmHg 86%
    15:00 +2°C° 0 mm 1 m/S 701 mmHg 88%
    16:00 +1°C° 0 mm 1 m/S 701 mmHg 89%
    17:00 0°C° 0 mm 1 m/S 700 mmHg 87%
    18:00 -3°C° 0 mm 2 m/S 700 mmHg 84%
    19:00 -3°C° 0 mm 2 m/S 699 mmHg 81%
    20:00 -3°C° 0 mm 2 m/S 698 mmHg 77%
    21:00 -3°C° 0 mm 2 m/S 698 mmHg 74%
    22:00 -4°C° 0 mm 3 m/S 697 mmHg 71%
    23:00 -4°C° 0 mm 3 m/S 696 mmHg 71%

    übermorgen, 13 Dezember, Freitag

    Zeit Temperatur Niederschläge Wind Luftdruck Luftfeuchtigkeit
    00:00 -2°C° 0 mm 3 m/S 695 mmHg 72%
    01:00 -2°C° 0 mm 3 m/S 694 mmHg 72%
    02:00 -2°C° 0.1 mm 3 m/S 693 mmHg 75%
    03:00 -1°C° 0.1 mm 3 m/S 692 mmHg 78%
    04:00 -1°C° 0.1 mm 3 m/S 692 mmHg 81%
    05:00 -1°C° 0.4 mm 3 m/S 691 mmHg 83%
    06:00 -1°C° 0.4 mm 3 m/S 690 mmHg 85%
    07:00 -1°C° 0.4 mm 4 m/S 690 mmHg 87%
    08:00 0°C° 2.4 mm 3 m/S 689 mmHg 90%
    09:00 0°C° 2.4 mm 3 m/S 689 mmHg 92%
    10:00 -1°C° 2.4 mm 3 m/S 689 mmHg 95%
    11:00 0°C° 1.3 mm 3 m/S 690 mmHg 94%
    12:00 +1°C° 1.3 mm 3 m/S 690 mmHg 93%
    13:00 +2°C° 1.3 mm 3 m/S 690 mmHg 91%
    14:00 +1°C° 0.5 mm 3 m/S 691 mmHg 92%
    15:00 +1°C° 0.5 mm 3 m/S 691 mmHg 93%
    16:00 0°C° 0.5 mm 3 m/S 692 mmHg 94%
    17:00 0°C° 0.5 mm 3 m/S 693 mmHg 94%
    18:00 0°C° 0.5 mm 3 m/S 694 mmHg 94%
    19:00 0°C° 0.5 mm 3 m/S 695 mmHg 94%
    20:00 0°C° 0.3 mm 3 m/S 696 mmHg 94%
    21:00 0°C° 0.3 mm 3 m/S 696 mmHg 94%
    22:00 0°C° 0.3 mm 3 m/S 697 mmHg 93%
    23:00 0°C° 0.2 mm 3 m/S 698 mmHg 93%

    14 Dezember, Samstag

    Zeit Temperatur Niederschläge Wind Luftdruck Luftfeuchtigkeit
    00:00 0°C° 0.2 mm 3 m/S 698 mmHg 92%
    01:00 0°C° 0.2 mm 3 m/S 699 mmHg 92%
    02:00 0°C° 0.1 mm 3 m/S 699 mmHg 91%
    03:00 0°C° 0.1 mm 3 m/S 700 mmHg 90%
    04:00 0°C° 0.1 mm 3 m/S 700 mmHg 90%
    05:00 +1°C° 0.2 mm 3 m/S 700 mmHg 90%
    06:00 +1°C° 0.2 mm 3 m/S 701 mmHg 90%
    07:00 +2°C° 0.2 mm 3 m/S 701 mmHg 91%
    08:00 +2°C° 0.8 mm 3 m/S 701 mmHg 93%
    09:00 +3°C° 0.8 mm 3 m/S 702 mmHg 95%
    10:00 +4°C° 0.8 mm 3 m/S 702 mmHg 97%
    11:00 +4°C° 0.5 mm 3 m/S 702 mmHg 97%
    12:00 +6°C° 0.5 mm 2 m/S 702 mmHg 98%
    13:00 +6°C° 0.5 mm 2 m/S 702 mmHg 98%
    14:00 +6°C° 0.7 mm 2 m/S 702 mmHg 98%
    15:00 +6°C° 0.7 mm 2 m/S 702 mmHg 98%
    16:00 +7°C° 0.7 mm 2 m/S 703 mmHg 98%
    17:00 +7°C° 0.4 mm 2 m/S 703 mmHg 97%
    18:00 +7°C° 0.4 mm 2 m/S 703 mmHg 96%
    19:00 +7°C° 0.4 mm 3 m/S 703 mmHg 96%
    20:00 +7°C° 0.1 mm 3 m/S 704 mmHg 95%
    21:00 +7°C° 0.1 mm 3 m/S 704 mmHg 94%
    22:00 +7°C° 0.1 mm 3 m/S 704 mmHg 93%
    23:00 +5°C° 0 mm 3 m/S 704 mmHg 90%

    15 Dezember, Sonntag

    Zeit Temperatur Niederschläge Wind Luftdruck Luftfeuchtigkeit
    00:00 +5°C° 0 mm 3 m/S 704 mmHg 88%
    01:00 +5°C° 0 mm 2 m/S 704 mmHg 85%
    02:00 +5°C° 0 mm 2 m/S 704 mmHg 85%
    03:00 +5°C° 0 mm 2 m/S 704 mmHg 84%
    04:00 +5°C° 0 mm 2 m/S 704 mmHg 84%
    05:00 +5°C° 0 mm 2 m/S 705 mmHg 83%
    06:00 +4°C° 0 mm 3 m/S 705 mmHg 83%
    07:00 +4°C° 0 mm 3 m/S 705 mmHg 82%
    08:00 +6°C° 0 mm 2 m/S 705 mmHg 83%
    09:00 +6°C° 0 mm 2 m/S 706 mmHg 84%
    10:00 +7°C° 0 mm 2 m/S 706 mmHg 85%
    11:00 +7°C° 0 mm 2 m/S 706 mmHg 87%
    12:00 +8°C° 0 mm 2 m/S 707 mmHg 90%
    13:00 +8°C° 0 mm 2 m/S 707 mmHg 92%
    14:00 +8°C° 0 mm 2 m/S 707 mmHg 93%
    15:00 +7°C° 0 mm 2 m/S 708 mmHg 93%
    16:00 +7°C° 0 mm 2 m/S 708 mmHg 93%
    17:00 +7°C° 0 mm 1 m/S 708 mmHg 91%
    18:00 +7°C° 0 mm 1 m/S 709 mmHg 89%
    19:00 +7°C° 0 mm 1 m/S 709 mmHg 87%
    20:00 +6°C° 0 mm 1 m/S 709 mmHg 86%
    21:00 +6°C° 0 mm 1 m/S 709 mmHg 85%
    22:00 +5°C° 0 mm 1 m/S 709 mmHg 84%
    23:00 +4°C° 0 mm 2 m/S 709 mmHg 84%

    16 Dezember, Montag

    Zeit Temperatur Niederschläge Wind Luftdruck Luftfeuchtigkeit
    00:00 +4°C° 0 mm 2 m/S 709 mmHg 84%
    01:00 +5°C° 0 mm 2 m/S 709 mmHg 84%
    02:00 +4°C° 0 mm 2 m/S 709 mmHg 84%
    03:00 +4°C° 0 mm 2 m/S 709 mmHg 83%
    04:00 +4°C° 0 mm 2 m/S 709 mmHg 83%
    05:00 +4°C° 0 mm 2 m/S 708 mmHg 82%
    06:00 +3°C° 0 mm 3 m/S 708 mmHg 81%
    07:00 +3°C° 0 mm 3 m/S 708 mmHg 81%
    08:00 +3°C° 0 mm 3 m/S 708 mmHg 81%
    09:00 +5°C° 0 mm 2 m/S 708 mmHg 82%
    10:00 +6°C° 0 mm 2 m/S 708 mmHg 82%
    11:00 +6°C° 0 mm 2 m/S 708 mmHg 83%
    12:00 +7°C° 0 mm 2 m/S 708 mmHg 84%
    13:00 +8°C° 0 mm 2 m/S 707 mmHg 85%
    14:00 +7°C° 0 mm 2 m/S 707 mmHg 85%
    15:00 +7°C° 0 mm 2 m/S 707 mmHg 85%
    16:00 +6°C° 0 mm 2 m/S 707 mmHg 86%
    17:00 +6°C° 0 mm 2 m/S 706 mmHg 85%
    18:00 +5°C° 0 mm 2 m/S 706 mmHg 84%
    19:00 +4°C° 0 mm 3 m/S 706 mmHg 83%
    20:00 +4°C° 0 mm 3 m/S 706 mmHg 83%
    21:00 +4°C° 0 mm 3 m/S 706 mmHg 83%
    22:00 +4°C° 0 mm 3 m/S 706 mmHg 83%
    23:00 +4°C° 0 mm 3 m/S 706 mmHg 83%
    Mehr zeigen